Flag for USA

Past Weather in Dayton, Ohio, USA — Yesterday and Last 2 Weeks

Now
65 °F

Partly sunny.


Feels Like: 65 °F
Forecast: 68 / 47 °F
Wind: 10 mph from Southwest

Location: Dayton / Wright-Patterson Air Force Base
Current Time: Sep 30, 2020 at 4:03:12 pm
Latest Report: Sep 30, 2020 at 2:56 pm
Visibility: 10 mi
Pressure29.72 "Hg
Humidity: 49%
Dew Point: 46 °F
Location of DaytonLocation

Past Weather in Dayton — Graph

°F

Dayton Temperature Yesterday

Maximum temperature yesterday: 62 °F (at 4:56 pm)
Minimum temperature yesterday: 48 °F (at 6:56 am)
Average temperature yesterday: 55 °F

High & Low Weather Summary for the Past Weeks

 TemperatureHumidityPressure
High81 °F (Sep 25, 2:57 pm)98% (Sep 26, 7:56 am)30.48 "Hg (Sep 26, 7:56 am)
Low41 °F (Sep 19, 6:56 am)17% (Sep 20, 3:56 pm)29.67 "Hg (Sep 28, 2:56 pm)
Average61 °F66%30.07 "Hg
* Reported Sep 15 1:56 pm — Sep 30 1:56 pm, Dayton. Weather by CustomWeather, © 2020

Note: Actual official high and low records may vary slightly from our data, if they occured in-between our weather recording intervals... More about our weather records

Dayton Weather History for the Previous 24 Hours

Scroll right to see more
 ConditionsComfort  
Time TempWeatherWind HumidityBarometerVisibility
1:56 pm
Wed, Sep 30
65 °FPartly sunny.18 mph48%29.75 "Hg10 mi
12:56 pm65 °FPartly sunny.20 mph51%29.77 "Hg10 mi
11:56 am62 °FPartly sunny.24 mph52%29.75 "Hg10 mi
10:56 am59 °FPartly sunny.20 mph62%29.77 "Hg10 mi
10:39 am59 °FScattered clouds.18 mph63%29.77 "Hg10 mi
9:56 am55 °FScattered clouds.17 mph71%29.78 "Hg10 mi
8:56 am51 °FPassing clouds.14 mph80%29.77 "Hg10 mi
7:56 am48 °FSunny.12 mph85%29.79 "Hg10 mi
6:56 am46 °FClear.6 mph87%29.79 "Hg10 mi
5:56 am46 °FClear.9 mph88%29.80 "Hg10 mi
4:56 am48 °FOvercast.8 mph89%29.79 "Hg10 mi
3:56 am46 °FPassing clouds.8 mph90%29.80 "Hg10 mi
2:56 am47 °FClear.8 mph89%29.81 "Hg10 mi
1:56 am50 °FPassing clouds.8 mph88%29.81 "Hg10 mi
12:56 am52 °FMostly cloudy.7 mph92%29.82 "Hg10 mi
11:56 pm
Tue, Sep 29
52 °FMostly cloudy.6 mph91%29.84 "Hg10 mi
10:56 pm52 °FOvercast.3 mph91%29.84 "Hg10 mi
9:56 pm53 °FOvercast.8 mph87%29.85 "Hg10 mi
9:00 pm54 °FMostly cloudy.3 mph88%29.85 "Hg10 mi
8:56 pm53 °FLight rain. Mostly cloudy.6 mph90%29.85 "Hg10 mi
7:56 pm54 °FRain showers. Overcast.9 mph85%29.85 "Hg3 mi
7:43 pm59 °FSprinkles. Overcast.14 mph68%29.83 "Hg5 mi
7:29 pm59 °FOvercast.7 mph63%29.82 "Hg10 mi
6:56 pm60 °FPartly sunny.6 mph57%29.82 "Hg10 mi
5:56 pm62 °FBroken clouds.No wind52%29.83 "Hg10 mi
4:56 pm62 °FPartly sunny.8 mph50%29.83 "Hg10 mi
Weather by CustomWeather, © 2020

See weather overview